Location: Hungerford
(51.4167°N, 1.5167°W)
Time: 02:19:25
(UTC+00:00)

ARGOS - Pass Details

Date: 18 September 2020
Orbit: 821 x 834 km, 98.4° (Epoch: 30 October)

Event Time Altitude Azimuth Distance (km) Brightness Sun altitude
Rises 19:15:20 0° 164° (SSE) 3,343 6.0 -10.5°
Reaches altitude 10° 19:17:40 10° 165° (SSE) 2,415 5.3 -10.8°
Maximum altitude 19:23:01 86° 253° (WSW) 833 3.2 -11.6°
Drops below altitude 10° 19:28:27 10° 345° (NNW) 2,439 6.1 -12.4°
Sets 19:30:49 0° 345° (NNW) 3,378 6.8 -12.8°
